CW7834 Weather Reports


time (UTC)temp
C
wind
direction
speed
KPH
gust
KPH
rain 1hr
cm
rain 24hr
cm
rain mn
cm
humidity
%
barometer
mb
20260504201736 22 232 4.8 24.1 0.00 0.00 0.00 35
20260504200736 22 259 9.7 22.5 0.00 0.00 0.00 35
20260504195736 21 217 9.7 32.2 0.00 0.00 0.00 36
20260504194736 21 223 12.9 29.0 0.00 0.00 0.00 35
20260504193736 21 222 19.3 33.8 0.00 0.00 0.00 35
20260504192737 21 309 12.9 33.8 0.00 0.00 0.00 36
20260504191736 21 252 8.0 35.4 0.00 0.00 0.00 36
20260504190736 20 249 8.0 25.7 0.00 0.00 0.00 38
20260504185736 20 284 11.3 30.6 0.00 0.00 0.00 38
20260504184736 21 289 8.0 37.0 0.00 0.00 0.00 37
20260504183737 20 217 9.7 41.8 0.00 0.00 0.00 39
20260504182736 21 248 24.1 29.0 0.00 0.00 0.00 36
20260504181736 20 279 11.3 35.4 0.00 0.00 0.00 38
20260504180736 20 219 16.1 35.4 0.00 0.00 0.00 38
20260504175736 20 214 8.0 30.6 0.00 0.00 0.00 37
20260504174736 20 244 19.3 29.0 0.00 0.00 0.00 37
20260504173736 20 325 4.8 32.2 0.00 0.00 0.00 38
20260504172736 20 148 9.7 22.5 0.00 0.00 0.00 38
20260504171736 19 235 9.7 33.8 0.00 0.00 0.00 37
20260504170736 19 273 19.3 33.8 0.00 0.00 0.00 37
20260504150736 16 229 6.4 30.6 0.00 0.00 0.00 40
20260504140736 12 249 16.1 27.4 0.00 0.00 0.00 44
20260504130737 11 264 12.9 27.4 0.00 0.00 0.00 48
20260504081736 2 235 0.0 1.6 0.00 0.00 0.00 78
20260504080735 2 235 0.0 1.6 0.00 0.00 0.00 77
20260504050735 3 192 0.0 0.0 0.00 0.00 0.00 75
20260504045736 3 192 0.0 3.2 0.00 0.00 0.00 76
20260504044735 4 192 0.0 6.4 0.00 0.00 0.00 74
20260504043736 4 175 0.0 4.8 0.00 0.00 0.00 73
20260504042735 4 174 1.6 1.6 0.00 0.00 0.00 73
20260504041735 5 174 1.6 4.8 0.00 0.00 0.00 70
20260504040735 5 175 0.0 4.8 0.00 0.00 0.00 69
20260504035735 5 173 1.6 9.7 0.00 0.00 0.00 68
20260504034735 5 223 0.0 3.2 0.00 0.00 0.00 71
20260504033735 5 224 1.6 4.8 0.00 0.00 0.00 70
20260504032735 5 224 0.0 4.8 0.00 0.00 0.00 68
20260504031735 5 223 0.0 4.8 0.00 0.00 0.00 69
20260504030735 5 228 1.6 3.2 0.00 0.00 0.00 69
20260504025735 5 232 1.6 4.8 0.00 0.00 0.00 65
20260504024735 5 242 0.0 3.2 0.00 0.00 0.00 67
20260504023735 5 243 4.8 6.4 0.00 0.00 0.00 67
20260504022735 5 228 0.0 0.0 0.00 0.00 0.00 67
20260504021735 6 228 0.0 0.0 0.00 0.00 0.00 65
20260504020735 6 228 0.0 0.0 0.00 0.00 0.00 65
20260504015735 6 227 0.0 0.0 0.00 0.00 0.00 65
20260504014735 6 227 0.0 3.2 0.00 0.00 0.00 63
20260504013735 7 228 0.0 1.6 0.00 0.00 0.00 61
20260504012735 7 227 0.0 3.2 0.00 0.00 0.00 60
20260504011735 7 227 0.0 3.2 0.00 0.00 0.00 58
20260504010735 8 228 1.6 3.2 0.00 0.00 0.00 58
20260504005735 8 227 3.2 3.2 0.00 0.00 0.00 55
20260504004735 8 227 3.2 3.2 0.00 0.00 0.00 53
20260504003735 9 228 0.0 1.6 0.00 0.00 0.00 51
20260504002735 10 228 0.0 3.2 0.00 0.00 0.00 49
20260504001735 11 227 1.6 8.0 0.00 0.00 0.00 47
20260504000735 11 219 4.8 8.0 0.00 0.00 0.00 45
20260503235735 11 194 3.2 8.0 0.00 0.00 0.00 43
20260503234735 12 286 1.6 8.0 0.00 0.00 0.00 43
20260503233735 12 275 1.6 9.7 0.00 0.00 0.00 43
20260503232735 12 271 3.2 12.9 0.00 0.00 0.00 41
20260503231736 12 259 14.5 16.1 0.00 0.00 0.00 41
20260503230735 13 311 12.9 25.7 0.00 0.00 0.00 40
20260503225735 13 277 4.8 25.7 0.00 0.00 0.00 39
20260503224735 14 286 4.8 29.0 0.00 0.00 0.00 38
20260503223735 13 329 9.7 20.9 0.00 0.00 0.00 39
20260503222735 14 315 6.4 17.7 0.00 0.00 0.00 38
20260503221735 14 277 4.8 17.7 0.00 0.00 0.00 39
20260503220735 13 284 14.5 24.1 0.00 0.00 0.00 38
20260503215735 14 345 4.8 24.1 0.00 0.00 0.00 37
20260503214735 14 292 1.6 14.5 0.00 0.00 0.00 37
20260503213736 14 313 6.4 24.1 0.00 0.00 0.00 36
20260503212735 14 257 19.3 33.8 0.00 0.00 0.00 38
20260503211735 13 263 27.4 33.8 0.00 0.00 0.00 36
20260503210736 13 343 12.9 30.6 0.00 0.00 0.00 35
20260503205735 13 279 19.3 35.4 0.00 0.00 0.00 35
20260503204735 15 279 20.9 30.6 0.00 0.00 0.00 32
20260503203735 15 286 12.9 24.1 0.00 0.00 0.00 32
20260503202735 15 265 19.3 27.4 0.00 0.00 0.00 33